Find Zi Yuan 1-02

NORAD ID: 28057 Int'l Des: 2003-049 Owner: ZZWYZ/INPE Country: CN operational
LEOCIRCULARRETROGRADESSO

Live Position

Loading 3D Globe...

About Zi Yuan 1-02

Description loading...

Upcoming Passes

Passes for default location (London). Set your location on the main map for personalized predictions.

Altitude History

Loading altitude history...

Two-Line Element Set

1 28057U 03049A 26103.63248792 .00000123 00000-0 57264-4 0 9995
2 28057 98.7505 74.4129 0001258 45.9306 314.1983 14.36719716177917
Epoch: Apr 13, 2026 • Age: 22 hours

Current Status

Altitude 772.4 km
Velocity 7.47 km/s
Sub-Earth Point -4.51°S, 40°E
Launch Date Oct 21, 2003
Age 22.4 years
Type other

Technical Details

Classification Payload
Mass 1450.00 kg
Dry Mass 1400.00 kg
Total Mass 1450.00 kg
Length 1.80 m
Diameter 2.00 m
Span 9.00 m
Shape Box + Pan
Manufacturer CAST/INPE
Bus Type ZY
Phase Status In Orbit
Owner/State ZZWYZ/INPE/CN

Most Searched